Boston, MA

10:54 PM EST on February 21, 2018 (GMT -0500)
Logan International

Weather History for KBOS - July, 2015

Change the Weather History Date:

Thursday, July 2, 2015

  Actual Average Record
Temperature  
Mean Temperature 72 °F 72 °F  
Max Temperature 80 °F 80 °F 98 °F (1963)
Min Temperature 64 °F 64 °F 51 °F (1883)
Degree Days  
Heating Degree Days 0 0  
Month to date heating degree days 0 0  
Since 1 June heating degree days 98 55  
Since 1 July heating degree days 0 0  
Cooling Degree Days 7 8  
Month to date cooling degree days 7 15  
Year to date cooling degree days 165 181  
Since 1 June cooling degree days 104 151  
Growing Degree Days 22 (Base 50)    
Moisture  
Dew Point 56 °F    
Average Humidity 60    
Maximum Humidity 78    
Minimum Humidity 42    
Precipitation  
Precipitation 0.00 in 0.09 in 1.38 in (1986)
Month to date precipitation 0.00 0.18  
Year to date precipitation 18.50 22.02  
Sea Level Pressure  
Sea Level Pressure 29.86 in    
Wind  
Wind Speed 9 mph (West)    
Max Wind Speed 16 mph    
Max Gust Speed 23 mph    
Visibility 10 miles    
Events      
T = Trace of Precipitation, MM = Missing Value Source: NWS Daily Summary

Daily Weather History Graph

Daily Weather History Graph

Search for Another Location

Airport or City:

Trip Planner

Search our weather history database for the weather conditions in past years. The results will help you decide how hot, cold, wet, or windy it might be!

Date:

Astronomy

Jul. 02, 2015 Rise Set
Actual Time 5:11 AM EDT 8:24 PM EDT
Civil Twilight 4:36 AM EDT 8:59 PM EDT
Nautical Twilight 3:52 AM EDT 9:43 PM EDT
Astronomical Twilight 2:58 AM EDT 10:37 PM EDT
Moon 8:41 PM EDT (7/2) 5:54 AM EDT (7/2)
Length of Visible Light 16h 22m
Length of Day
15h 13m
Full, 100% of the Moon is Illuminated
Jul 2
Full
Jul 8
Last Quarter
Jul 15
New
Jul 24
First Quarter
Jul 31
Full

Hourly Weather History & Observations

Time (EDT) Temp. Dew Point Humidity Pressure Visibility Wind Dir Wind Speed Gust Speed Precip Events Conditions
12:54 AM 68.0 °F 60.1 °F 76% 29.81 in 10.0 mi WSW 12.7 mph - N/A   Clear
1:54 AM 68.0 °F 57.9 °F 70% 29.82 in 10.0 mi WSW 9.2 mph - N/A   Clear
2:54 AM 66.9 °F 57.9 °F 73% 29.82 in 10.0 mi SW 9.2 mph - N/A   Clear
3:54 AM 64.9 °F 57.9 °F 78% 29.83 in 10.0 mi WSW 10.4 mph - N/A   Clear
4:54 AM 64.9 °F 57.9 °F 78% 29.83 in 10.0 mi WSW 10.4 mph - N/A   Partly Cloudy
5:54 AM 64.9 °F 57.0 °F 75% 29.83 in 10.0 mi West 11.5 mph - N/A   Partly Cloudy
6:54 AM 66.9 °F 57.9 °F 73% 29.85 in 10.0 mi West 8.1 mph - N/A   Partly Cloudy
7:54 AM 69.1 °F 57.0 °F 65% 29.87 in 10.0 mi West 10.4 mph 17.3 mph N/A   Partly Cloudy
8:54 AM 71.1 °F 55.9 °F 59% 29.88 in 10.0 mi West 11.5 mph - N/A   Mostly Cloudy
9:54 AM 72.0 °F 55.9 °F 57% 29.88 in 10.0 mi West 12.7 mph 17.3 mph N/A   Scattered Clouds
10:54 AM 75.0 °F 55.9 °F 51% 29.89 in 10.0 mi WSW 10.4 mph - N/A   Partly Cloudy
11:54 AM 77.0 °F 55.0 °F 47% 29.89 in 10.0 mi Variable 5.8 mph 16.1 mph N/A   Scattered Clouds
12:54 PM 78.1 °F 54.0 °F 43% 29.87 in 10.0 mi West 12.7 mph - N/A   Scattered Clouds
1:54 PM 78.1 °F 55.9 °F 46% 29.87 in 10.0 mi West 5.8 mph - N/A   Scattered Clouds
2:54 PM 78.1 °F 55.9 °F 46% 29.87 in 10.0 mi West 9.2 mph - N/A   Mostly Cloudy
3:54 PM 78.1 °F 55.9 °F 46% 29.86 in 10.0 mi West 10.4 mph - N/A   Overcast
4:54 PM 77.0 °F 57.0 °F 50% 29.86 in 10.0 mi WSW 11.5 mph - N/A   Overcast
5:54 PM 77.0 °F 55.9 °F 48% 29.86 in 10.0 mi West 11.5 mph 17.3 mph N/A   Overcast
6:54 PM 75.0 °F 55.9 °F 51% 29.86 in 10.0 mi West 6.9 mph - N/A   Overcast
7:54 PM 75.0 °F 55.0 °F 50% 29.86 in 10.0 mi West 9.2 mph - N/A   Mostly Cloudy
8:54 PM 73.9 °F 55.0 °F 52% 29.87 in 10.0 mi West 4.6 mph - N/A   Mostly Cloudy
9:54 PM 73.9 °F 55.0 °F 52% 29.88 in 10.0 mi WNW 3.5 mph - N/A   Overcast
10:54 PM 73.9 °F 55.9 °F 53% 29.87 in 10.0 mi NNW 6.9 mph - N/A   Mostly Cloudy
11:54 PM 72.0 °F 57.0 °F 59% 29.86 in 10.0 mi WNW 8.1 mph - N/A   Clear